1509253200.32,53248,9.69,71372.8,-4.43,-5.07,-5.07,0,*5B
1509253201.56,53249,9.69,71372.3,-4.45,-5.11,-5.11,0,*5C
1509253202.81,53250,9.69,71368.0,-4.45,-5.11,-5.03,0,*57
1509253204.06,53251,9.69,71366.8,-4.45,-5.03,-5.03,0,*55
1509253205.33,53252,9.63,71364.5,-4.43,-5.07,-5.11,0,*57
1509253206.58,53253,9.63,71366.0,-4.45,-5.11,-5.15,0,*53
1509253207.85,53254,9.69,71378.0,-4.43,-5.11,-5.07,0,*51
1509253209.12,53255,9.69,71380.0,-4.43,-5.07,-5.07,0,*57
1509253210.37,53256,9.69,71370.5,-4.43,-5.07,-4.99,0,*52
1509253211.61,53257,9.69,71374.3,-4.45,-5.11,-5.03,0,*50
1509253212.86,53258,9.69,71372.3,-4.45,-5.11,-5.03,0,*5F
1509253214.11,53259,9.63,71370.0,-4.45,-5.03,-5.03,0,*5D
1509253215.32,53260,9.69,71372.3,-4.43,-4.99,-4.99,0,*51
1509253216.56,53261,9.63,71358.0,-4.43,-5.07,-4.99,0,*56
1509253217.81,53262,9.69,71358.8,-4.43,-5.07,-4.99,0,*55
1509253219.02,53263,9.69,71344.3,-4.45,-5.11,-4.99,0,*55
1509253220.27,53264,9.69,71348.3,-4.45,-5.03,-5.11,0,*50
1509253221.48,53265,9.69,71338.0,-4.43,-4.99,-4.99,0,*54
1509253222.73,53266,9.69,71318.8,-4.45,-5.03,-5.03,0,*51
1509253223.97,53267,9.63,71314.5,-4.43,-5.07,-4.99,0,*50
1509253225.21,53268,9.63,71314.0,-4.43,-4.99,-5.07,0,*5F
1509253226.43,53269,9.69,71312.0,-4.45,-5.03,-4.99,0,*5C
1509253227.62,53270,9.69,71326.0,-4.45,-4.99,-4.99,0,*56
1509253228.87,53271,9.63,71336.0,-4.45,-5.03,-5.03,0,*57
1509253230.12,53272,9.69,71354.8,-4.45,-5.11,-5.03,0,*57
1509253231.36,53273,9.69,71360.0,-4.43,-5.07,-4.99,0,*55
1509253232.57,53274,9.69,71374.0,-4.45,-5.11,-4.99,0,*53
1509253233.81,53275,9.69,71378.0,-4.43,-5.07,-4.99,0,*53
1509253235.02,53276,9.63,71376.3,-4.43,-4.99,-4.99,0,*56
1509253236.27,53277,9.69,71372.5,-4.45,-5.11,-5.03,0,*52
1509253237.49,53278,9.69,71354.8,-4.45,-4.99,-5.07,0,*58
1509253238.77,53279,9.69,71352.8,-4.43,-5.07,-5.07,0,*59
1509253240.02,53280,9.69,71328.0,-4.45,-5.15,-5.11,0,*5D
1509253241.26,53281,9.69,71316.0,-4.45,-5.11,-5.11,0,*58
1509253242.51,53282,9.69,71290.8,-4.45,-5.03,-5.11,0,*58
1509253243.75,53283,9.69,71294.0,-4.45,-5.11,-5.11,0,*5A
1509253244.99,53284,9.69,71312.3,-4.45,-5.11,-5.15,0,*59
1509253246.26,53285,9.63,71340.0,-4.43,-5.07,-4.93,0,*56
1509253247.52,53286,9.63,71332.0,-4.45,-5.03,-5.03,0,*5F
1509253248.76,53287,9.69,71326.5,-4.45,-5.03,-5.11,0,*5D
1509253250.01,53288,9.63,71328.8,-4.45,-5.11,-5.11,0,*51
1509253251.25,53289,9.63,71316.3,-4.43,-5.07,-4.99,0,*50
1509253252.46,53290,9.63,71306.5,-4.43,-4.99,-4.99,0,*5E
1509253253.7,53291,9.69,71298.0,-4.45,-5.11,-5.11,0,*59
1509253254.95,53292,9.63,71272.8,-4.45,-5.11,-5.03,0,*59
1509253256.19,53293,9.69,71280.0,-4.43,-4.99,-5.07,0,*5B
1509253257.41,53294,9.63,71268.3,-4.45,-5.07,-4.99,0,*5A
1509253258.62,53295,9.63,71288.5,-4.43,-4.99,-4.99,0,*5B
1509253259.87,53296,9.63,71278.0,-4.45,-5.03,-5.03,0,*5E
1509253261.12,53297,9.69,71308.3,-4.45,-5.11,-5.03,0,*5C
1509253262.33,53298,9.63,71300.3,-4.45,-5.11,-4.99,0,*51
1509253263.58,53299,9.63,71326.0,-4.45,-5.03,-5.03,0,*51
1509253264.8,53300,9.69,71336.8,-4.45,-5.03,-4.99,0,*52
1509253266.05,53301,9.63,71338.5,-4.45,-5.11,-5.03,0,*52
1509253267.3,53302,9.63,71334.5,-4.45,-5.03,-5.03,0,*52
1509253268.52,53303,9.63,71342.0,-4.45,-5.03,-4.99,0,*51
1509253269.77,53304,9.63,71332.5,-4.45,-5.03,-5.03,0,*54
1509253271.02,53305,9.69,71334.0,-4.45,-5.03,-5.03,0,*55
1509253272.23,53306,9.63,71360.8,-4.43,-4.99,-4.99,0,*50
1509253273.45,53307,9.63,71362.8,-4.45,-5.03,-4.99,0,*55
1509253274.71,53308,9.69,71360.8,-4.45,-5.03,-5.03,0,*58
1509253275.96,53309,9.63,71372.3,-4.45,-5.03,-5.03,0,*59
1509253277.17,53310,9.63,71372.5,-4.43,-4.99,-4.99,0,*57
1509253278.38,53311,9.63,71372.5,-4.45,-4.99,-4.93,0,*5A
1509253279.6,53312,9.63,71380.0,-4.45,-4.99,-5.03,0,*51
1509253280.85,53313,9.69,71384.0,-4.45,-5.03,-5.03,0,*52
1509253282.1,53314,9.63,71374.3,-4.45,-5.03,-5.11,0,*56
1509253283.31,53315,9.63,71378.3,-4.43,-4.99,-4.99,0,*52
1509253284.56,53316,9.69,71382.3,-4.45,-5.03,-5.03,0,*57
1509253285.77,53317,9.63,71374.0,-4.43,-4.99,-4.99,0,*50
1509253287.0,53318,9.69,71374.8,-4.43,-4.99,-4.93,0,*55
1509253288.21,53319,9.63,71378.0,-4.45,-4.93,-4.99,0,*52
1509253289.45,53320,9.69,71376.3,-4.43,-4.99,-4.93,0,*5E
1509253290.69,53321,9.69,71368.5,-4.43,-5.07,-4.99,0,*53
1509253291.9,53322,9.69,71382.0,-4.43,-4.99,-4.99,0,*56
1509253293.11,53323,9.63,71360.5,-4.43,-4.99,-4.99,0,*57
1509253294.32,53324,9.69,71366.3,-4.43,-4.99,-4.99,0,*50
1509253295.53,53325,9.63,71332.0,-4.43,-4.99,-4.99,0,*51
1509253296.74,53326,9.69,71340.8,-4.45,-4.99,-5.03,0,*56
1509253297.93,53327,9.69,71320.5,-4.45,-4.99,-4.99,0,*55
1509253299.15,53328,9.63,71334.8,-4.45,-5.03,-4.99,0,*58
1509253300.4,53329,9.69,71338.0,-4.45,-5.03,-5.03,0,*5B
1509253301.61,53330,9.69,71338.3,-4.43,-4.99,-4.99,0,*55
1509253302.83,53331,9.63,71342.0,-4.45,-5.03,-4.99,0,*50
1509253304.04,53332,9.69,71348.5,-4.43,-4.99,-4.99,0,*57
1509253305.26,53333,9.69,71346.8,-4.45,-4.99,-5.03,0,*52
1509253306.48,53334,9.69,71350.8,-4.45,-5.03,-4.99,0,*55
1509253307.71,53335,9.69,71338.8,-4.45,-4.93,-4.93,0,*56
1509253308.94,53336,9.63,71350.8,-4.43,-4.93,-4.99,0,*59
1509253310.18,53337,9.63,71336.8,-4.43,-4.99,-4.93,0,*58
1509253311.41,53338,9.63,71342.5,-4.43,-4.93,-4.99,0,*57
1509253312.66,53339,9.69,71332.5,-4.45,-5.03,-5.03,0,*5A
1509253313.88,53340,9.69,71348.0,-4.45,-5.03,-4.99,0,*56
1509253315.15,53341,9.63,71346.8,-4.43,-5.07,-4.93,0,*5F
1509253316.4,53342,9.63,71348.3,-4.45,-5.03,-5.03,0,*56
1509253317.64,53343,9.69,71356.0,-4.43,-4.99,-4.93,0,*5B
1509253318.89,53344,9.69,71356.8,-4.45,-5.03,-5.03,0,*50
1509253320.1,53345,9.63,71362.0,-4.43,-4.99,-4.99,0,*57
1509253321.31,53346,9.69,71364.8,-4.43,-4.99,-4.99,0,*54
1509253322.56,53347,9.69,71366.8,-4.45,-5.03,-5.03,0,*53
1509253323.8,53348,9.63,71354.3,-4.43,-5.07,-4.99,0,*5C
1509253325.02,53349,9.69,71358.3,-4.45,-4.99,-5.03,0,*5F
1509253326.26,53350,9.63,71364.8,-4.43,-4.99,-4.93,0,*59
1509253327.48,53351,9.63,71360.3,-4.45,-5.03,-4.99,0,*56
1509253328.72,53352,9.69,71364.8,-4.45,-4.93,-5.03,0,*5F
1509253329.97,53353,9.63,71352.5,-4.45,-5.03,-5.03,0,*56
1509253331.25,53354,9.69,71354.3,-4.43,-5.07,-5.03,0,*53
1509253332.48,53355,9.69,71356.0,-4.43,-4.99,-4.93,0,*5C
1509253333.7,53356,9.69,71356.5,-4.45,-4.99,-5.03,0,*51
1509253334.92,53357,9.69,71344.3,-4.45,-4.99,-5.03,0,*50
1509253336.14,53358,9.63,71352.3,-4.45,-5.03,-4.99,0,*5F
1509253337.38,53359,9.69,71350.5,-4.41,-4.89,-4.89,0,*58
1509253338.59,53360,9.69,71330.8,-4.43,-4.99,-4.99,0,*50
1509253339.81,53361,9.69,71340.0,-4.45,-5.03,-4.99,0,*55
1509253341.02,53362,9.69,71342.8,-4.43,-4.99,-4.99,0,*52
1509253342.23,53363,9.63,71334.8,-4.43,-4.99,-4.99,0,*53
1509253343.46,53364,9.63,71348.5,-4.43,-4.99,-4.93,0,*5E
1509253344.67,53365,9.63,71356.0,-4.43,-4.99,-4.99,0,*55
1509253345.92,53366,9.69,71344.5,-4.43,-5.07,-4.99,0,*50
1509253347.16,53367,9.69,71352.5,-4.43,-5.07,-4.99,0,*51
1509253348.38,53368,9.69,71360.8,-4.45,-4.99,-5.03,0,*5C
1509253349.59,53369,9.69,71358.0,-4.43,-4.99,-4.99,0,*59
1509253350.81,53370,9.69,71348.0,-4.45,-5.03,-4.99,0,*55
1509253352.01,53371,9.69,71344.0,-4.43,-4.99,-4.99,0,*50
1509253353.25,53372,9.69,71338.3,-4.43,-4.93,-4.99,0,*59
1509253354.45,53373,9.63,71342.8,-4.43,-4.99,-4.99,0,*52
1509253355.69,53374,9.69,71332.8,-4.43,-4.99,-4.93,0,*5F
1509253356.92,53375,9.69,71332.3,-4.43,-4.93,-4.99,0,*5E
1509253358.13,53376,9.63,71326.8,-4.43,-4.99,-4.99,0,*57
1509253359.34,53377,9.63,71330.0,-4.43,-4.99,-4.99,0,*56
1509253360.62,53378,9.69,71330.5,-4.43,-5.07,-5.07,0,*59
1509253361.86,53379,9.69,71322.5,-4.43,-4.99,-5.07,0,*5E
1509253363.04,53380,9.63,71310.8,-4.45,-4.99,-4.99,0,*58
1509253364.3,53381,9.69,71308.0,-4.45,-5.03,-5.03,0,*59
1509253365.53,53382,9.63,71312.0,-4.43,-4.99,-4.93,0,*56
1509253366.77,53383,9.69,71320.5,-4.43,-4.99,-4.93,0,*57
1509253368.02,53384,9.69,71318.8,-4.45,-5.03,-5.03,0,*5C
1509253369.23,53385,9.69,71314.5,-4.43,-4.99,-4.99,0,*5B
1509253370.5,53386,9.69,71320.8,-4.43,-5.07,-4.93,0,*54
1509253371.77,53387,9.69,71336.5,-4.43,-5.07,-4.93,0,*55
1509253373.01,53388,9.69,71330.0,-4.43,-5.07,-4.99,0,*50
1509253374.24,53389,9.69,71324.8,-4.43,-4.99,-4.93,0,*5D
1509253375.48,53390,9.69,71316.5,-4.43,-4.99,-4.93,0,*55
1509253376.75,53391,9.63,71320.8,-4.43,-4.93,-5.07,0,*52
1509253377.99,53392,9.69,71354.8,-4.43,-5.07,-4.99,0,*5B
1509253379.2,53393,9.63,71350.3,-4.43,-4.99,-4.99,0,*5C
1509253380.46,53394,9.69,71348.5,-4.43,-4.93,-4.93,0,*5B
1509253381.66,53395,9.69,71346.0,-4.43,-4.99,-4.99,0,*5A
1509253382.9,53396,9.69,71344.3,-4.43,-4.99,-4.93,0,*53
1509253384.11,53397,9.69,71336.0,-4.43,-4.99,-4.99,0,*58
1509253385.32,53398,9.69,71342.3,-4.43,-4.99,-4.99,0,*57
1509253386.55,53399,9.69,71342.8,-4.43,-5.11,-4.99,0,*57
1509253387.76,53400,9.69,71340.0,-4.43,-4.99,-4.99,0,*51
1509253389.01,53401,9.69,71344.0,-4.45,-5.03,-5.03,0,*56
1509253390.25,53402,9.63,71352.5,-4.43,-4.99,-4.93,0,*59
1509253391.49,53403,9.69,71360.0,-4.43,-4.99,-5.07,0,*54
1509253392.73,53404,9.69,71360.0,-4.43,-5.07,-4.99,0,*53
1509253393.94,53405,9.69,71366.8,-4.43,-4.99,-4.99,0,*54
1509253395.2,53406,9.69,71350.0,-4.45,-5.03,-5.03,0,*51
1509253396.4,53407,9.69,71330.8,-4.43,-4.99,-4.99,0,*56
1509253397.62,53408,9.69,71326.3,-4.45,-4.99,-5.03,0,*5D
1509253398.9,53409,9.69,71332.3,-4.43,-5.07,-5.07,0,*58
1509253400.14,53410,9.69,71334.5,-4.45,-5.11,-5.11,0,*56
1509253401.4,53411,9.69,71346.5,-4.45,-5.15,-5.03,0,*50
1509253402.64,53412,9.69,71360.0,-4.45,-5.11,-5.03,0,*57
1509253403.89,53413,9.63,71362.0,-4.45,-5.03,-5.03,0,*55
1509253405.1,53414,9.69,71362.0,-4.43,-4.99,-4.99,0,*54
1509253406.35,53415,9.69,71362.5,-4.45,-5.11,-5.03,0,*50
1509253407.58,53416,9.69,71348.0,-4.43,-5.11,-4.99,0,*57
1509253408.83,53417,9.69,71346.5,-4.43,-5.07,-4.99,0,*51
1509253410.06,53418,9.69,71350.3,-4.43,-4.99,-4.93,0,*52
1509253411.31,53419,9.69,71344.5,-4.43,-4.99,-5.07,0,*5F
1509253412.55,53420,9.69,71344.8,-4.43,-4.99,-5.07,0,*55
1509253413.8,53421,9.69,71362.0,-4.45,-5.11,-5.03,0,*57
1509253415.05,53422,9.63,71354.0,-4.45,-5.03,-5.03,0,*57
1509253416.29,53423,9.69,71354.5,-4.43,-5.07,-4.99,0,*56
1509253417.53,53424,9.69,71344.0,-4.43,-4.99,-5.07,0,*51
1509253418.78,53425,9.63,71348.3,-4.43,-5.07,-4.99,0,*50
1509253420.05,53426,9.69,71368.0,-4.43,-5.11,-5.07,0,*52
1509253421.3,53427,9.69,71368.5,-4.45,-5.03,-5.11,0,*51
1509253422.54,53428,9.69,71366.8,-4.45,-5.03,-5.11,0,*5E
1509253423.79,53429,9.63,71354.5,-4.45,-5.07,-5.11,0,*5B
1509253425.04,53430,9.69,71364.8,-4.45,-5.11,-5.11,0,*54
1509253426.31,53431,9.69,71360.5,-4.43,-5.07,-5.11,0,*54
1509253427.56,53432,9.63,71356.5,-4.45,-5.11,-5.03,0,*55
1509253428.8,53433,9.69,71356.3,-4.43,-5.07,-4.99,0,*57
1509253430.04,53434,9.63,71354.5,-4.43,-5.07,-4.99,0,*50
1509253431.25,53435,9.69,71352.3,-4.43,-4.99,-4.99,0,*57
1509253432.46,53436,9.63,71348.8,-4.43,-4.99,-4.99,0,*54
1509253433.71,53437,9.69,71352.0,-4.45,-5.15,-5.03,0,*54
1509253434.95,53438,9.63,71356.8,-4.43,-5.07,-4.99,0,*5C
1509253436.2,53439,9.63,71354.3,-4.45,-5.11,-5.03,0,*5E
1509253437.44,53440,9.63,71352.8,-4.43,-5.07,-4.99,0,*53
1509253438.69,53441,9.63,71346.8,-4.43,-5.07,-4.99,0,*52
1509253439.9,53442,9.69,71346.0,-4.43,-4.99,-4.99,0,*57
1509253441.14,53443,9.69,71340.0,-4.45,-5.11,-5.03,0,*53
1509253442.38,53444,9.63,71334.3,-4.43,-4.99,-5.11,0,*50
1509253443.65,53445,9.69,71316.0,-4.43,-5.07,-4.93,0,*5C
1509253444.89,53446,9.69,71314.3,-4.45,-5.11,-5.11,0,*55
1509253446.14,53447,9.69,71302.8,-4.45,-5.11,-5.03,0,*57
1509253447.38,53448,9.69,71302.3,-4.43,-5.07,-4.99,0,*5B
1509253448.66,53449,9.63,71310.0,-4.43,-5.07,-5.07,0,*5C
1509253449.9,53450,9.63,71316.8,-4.45,-5.11,-5.03,0,*51
1509253451.16,53451,9.63,71334.5,-4.45,-5.03,-5.03,0,*53
1509253452.36,53452,9.69,71344.3,-4.43,-4.99,-4.99,0,*56
1509253453.62,53453,9.69,71336.3,-4.45,-5.03,-5.03,0,*51
1509253454.83,53454,9.69,71332.8,-4.43,-4.99,-4.99,0,*50
1509253456.1,53455,9.69,71342.8,-4.43,-5.03,-5.07,0,*55
1509253457.35,53456,9.69,71342.5,-4.43,-5.07,-4.99,0,*54
1509253458.58,53457,9.69,71336.8,-4.43,-4.93,-4.99,0,*59
1509253459.82,53458,9.69,71344.3,-4.43,-4.99,-5.07,0,*5A
1509253461.06,53459,9.69,71348.8,-4.43,-4.99,-5.07,0,*5B
1509253462.31,53460,9.69,71360.8,-4.45,-5.11,-5.03,0,*52
1509253463.56,53461,9.69,71368.3,-4.45,-5.03,-5.11,0,*53
1509253464.81,53462,9.63,71360.0,-4.45,-5.03,-5.11,0,*50
1509253466.02,53463,9.63,71358.5,-4.43,-4.99,-4.99,0,*54
1509253467.27,53464,9.63,71348.5,-4.45,-5.03,-5.03,0,*55
1509253468.52,53465,9.63,71350.0,-4.45,-5.03,-5.03,0,*54
1509253469.71,53466,9.69,71340.5,-4.45,-4.99,-4.99,0,*57
1509253470.91,53467,9.69,71342.5,-4.43,-4.99,-4.99,0,*50
1509253472.14,53468,9.63,71346.3,-4.45,-4.99,-5.07,0,*5F
1509253473.38,53469,9.69,71324.3,-4.43,-5.07,-4.99,0,*58
1509253474.62,53470,9.63,71320.5,-4.43,-5.07,-4.99,0,*50
1509253475.86,53471,9.63,71322.0,-4.43,-4.99,-5.03,0,*55
1509253477.07,53472,9.69,71326.5,-4.43,-4.99,-4.99,0,*54
1509253478.33,53473,9.63,71338.8,-4.43,-5.11,-4.93,0,*5E
1509253479.55,53474,9.63,71324.0,-4.45,-5.07,-4.99,0,*52
1509253480.8,53475,9.63,71324.5,-4.45,-5.11,-5.11,0,*55
1509253482.05,53476,9.69,71326.8,-4.45,-5.15,-5.03,0,*51
1509253483.33,53477,9.69,71314.5,-4.43,-5.07,-5.07,0,*51
1509253484.6,53478,9.69,71346.8,-4.43,-5.07,-5.07,0,*5E
1509253485.87,53479,9.69,71334.0,-4.43,-4.93,-5.07,0,*53
1509253487.12,53480,9.69,71330.3,-4.45,-5.15,-5.03,0,*58
1509253488.36,53481,9.69,71326.0,-4.43,-5.07,-4.99,0,*5E
1509253489.61,53482,9.69,71302.5,-4.45,-5.11,-5.03,0,*5E
1509253490.86,53483,9.63,71308.3,-4.45,-5.11,-5.03,0,*5F
1509253492.06,53484,9.63,71298.0,-4.43,-4.99,-4.99,0,*5D
1509253493.32,53485,9.69,71302.3,-4.45,-5.03,-5.03,0,*5A
1509253494.57,53486,9.69,71290.8,-4.45,-5.03,-5.03,0,*59
1509253495.82,53487,9.69,71290.5,-4.45,-5.15,-5.03,0,*5F
1509253497.07,53488,9.69,71294.0,-4.45,-5.11,-5.03,0,*54
1509253498.31,53489,9.63,71300.8,-4.45,-5.11,-5.03,0,*55
1509253499.56,53490,9.69,71294.0,-4.45,-5.03,-5.11,0,*5D
1509253500.81,53491,9.69,71310.0,-4.43,-5.07,-4.99,0,*5F
1509253502.05,53492,9.69,71302.3,-4.43,-5.07,-4.99,0,*5C
1509253503.29,53493,9.69,71292.5,-4.45,-5.11,-5.03,0,*5E
1509253504.57,53494,9.63,71296.5,-4.43,-5.07,-5.07,0,*5C
1509253505.82,53495,9.69,71288.5,-4.45,-5.03,-5.03,0,*5B
1509253507.08,53496,9.69,71294.0,-4.45,-5.03,-5.03,0,*58
1509253508.34,53497,9.69,71298.3,-4.43,-5.11,-4.93,0,*54
1509253509.59,53498,9.69,71296.5,-4.45,-5.11,-5.03,0,*55
1509253510.83,53499,9.69,71302.3,-4.43,-5.07,-4.99,0,*57
1509253512.07,53500,9.69,71292.0,-4.43,-5.07,-4.99,0,*56
1509253513.28,53501,9.63,71284.5,-4.43,-4.99,-4.99,0,*51
1509253514.53,53502,9.63,71282.5,-4.45,-5.03,-5.03,0,*54
1509253515.77,53503,9.69,71306.3,-4.43,-4.99,-4.93,0,*59
1509253517.01,53504,9.69,71316.8,-4.43,-5.07,-4.99,0,*52
1509253518.22,53505,9.69,71326.5,-4.43,-4.99,-4.99,0,*55
1509253519.45,53506,9.69,71338.5,-4.43,-4.93,-4.99,0,*5C
1509253520.68,53507,9.69,71320.0,-4.43,-4.99,-4.93,0,*5D
1509253521.9,53508,9.69,71306.8,-4.45,-5.03,-4.99,0,*5C
1509253523.17,53509,9.69,71274.3,-4.43,-5.07,-4.93,0,*55
1509253524.4,53510,9.69,71296.0,-4.43,-4.93,-4.99,0,*5B
1509253525.62,53511,9.69,71282.3,-4.45,-5.11,-4.99,0,*57
1509253526.83,53512,9.63,71304.8,-4.43,-4.99,-4.99,0,*53
1509253528.05,53513,9.69,71272.0,-4.45,-5.03,-4.99,0,*56
1509253529.25,53514,9.69,71260.0,-4.43,-4.99,-4.99,0,*55
1509253530.47,53515,9.69,71266.5,-4.45,-5.03,-4.99,0,*50
1509253531.68,53516,9.69,71250.3,-4.43,-4.99,-4.99,0,*57
1509253532.89,53517,9.69,71250.0,-4.43,-4.99,-4.99,0,*56
1509253534.11,53518,9.69,71256.5,-4.45,-5.03,-4.99,0,*5D
1509253535.36,53519,9.69,71240.3,-4.45,-5.03,-5.03,0,*5E
1509253536.62,53520,9.69,71266.8,-4.45,-5.03,-5.03,0,*54
1509253537.82,53521,9.63,71264.0,-4.43,-4.99,-4.99,0,*53
1509253539.04,53522,9.69,71266.8,-4.45,-5.03,-4.99,0,*54
1509253540.27,53523,9.63,71270.0,-4.43,-4.93,-4.99,0,*5B
1509253541.49,53524,9.69,71286.0,-4.45,-5.03,-4.99,0,*52
1509253542.7,53525,9.63,71286.3,-4.43,-4.99,-4.99,0,*57
1509253543.91,53526,9.69,71282.5,-4.43,-4.99,-4.99,0,*54
1509253545.16,53527,9.63,71292.3,-4.45,-5.03,-5.03,0,*53
1509253546.4,53528,9.69,71290.5,-4.43,-4.93,-4.99,0,*50
1509253547.6,53529,9.69,71290.5,-4.43,-4.99,-4.99,0,*5B
1509253548.85,53530,9.69,71282.8,-4.43,-4.99,-5.07,0,*55
1509253550.07,53531,9.69,71304.0,-4.45,-5.03,-4.99,0,*56
1509253551.3,53532,9.69,71310.5,-4.43,-4.99,-4.93,0,*5B
1509253552.51,53533,9.69,71316.8,-4.43,-4.99,-4.99,0,*50
1509253553.7,53534,9.69,71306.3,-4.45,-4.99,-4.99,0,*51
1509253554.9,53535,9.69,71288.3,-4.43,-4.99,-4.99,0,*56
1509253556.11,53536,9.69,71282.3,-4.43,-4.99,-4.99,0,*55
1509253557.37,53537,9.69,71286.3,-4.45,-5.03,-5.03,0,*52
1509253558.58,53538,9.69,71280.5,-4.45,-4.99,-4.93,0,*57
1509253559.82,53539,9.69,71290.3,-4.43,-5.07,-4.99,0,*5C
1509253561.05,53540,9.69,71312.5,-4.43,-4.93,-4.99,0,*5E
1509253562.26,53541,9.69,71306.3,-4.43,-4.99,-4.99,0,*55
1509253563.47,53542,9.69,71306.3,-4.45,-4.99,-4.93,0,*5A
1509253564.71,53543,9.69,71280.0,-4.43,-4.99,-4.93,0,*5D
1509253565.94,53544,9.69,71304.8,-4.43,-4.93,-4.99,0,*5A
1509253567.2,53545,9.69,71292.3,-4.43,-4.93,-4.93,0,*51
1509253568.41,53546,9.69,71292.0,-4.43,-4.99,-4.99,0,*52
1509253569.61,53547,9.69,71292.0,-4.43,-4.99,-4.99,0,*53
1509253570.83,53548,9.69,71286.3,-4.45,-5.03,-4.99,0,*58
1509253572.09,53549,9.69,71300.0,-4.45,-5.03,-5.03,0,*5B
1509253573.32,53550,9.69,71294.3,-4.43,-4.99,-4.93,0,*5F
1509253574.58,53551,9.69,71296.3,-4.43,-4.93,-4.93,0,*54
1509253575.81,53552,9.69,71284.0,-4.43,-4.99,-4.93,0,*5D
1509253577.05,53553,9.69,71290.8,-4.43,-4.99,-4.93,0,*5C
1509253578.29,53554,9.69,71264.3,-4.43,-4.99,-4.93,0,*5B
1509253579.52,53555,9.69,71270.0,-4.43,-4.93,-4.99,0,*5A
1509253580.73,53556,9.69,71268.3,-4.43,-4.99,-4.99,0,*53
1509253581.98,53557,9.69,71254.3,-4.43,-4.93,-4.93,0,*52
1509253583.19,53558,9.63,71264.3,-4.43,-4.99,-4.99,0,*5D
1509253584.41,53559,9.69,71258.3,-4.45,-4.99,-5.03,0,*58
1509253585.63,53560,9.69,71284.0,-4.45,-4.99,-5.03,0,*52
1509253586.84,53561,9.69,71302.0,-4.45,-4.99,-4.93,0,*5B
1509253588.05,53562,9.69,71298.3,-4.43,-4.99,-4.99,0,*54
1509253589.29,53563,9.69,71324.0,-4.41,-4.93,-4.89,0,*5C
1509253590.54,53564,9.69,71328.5,-4.45,-5.03,-5.03,0,*54
1509253591.77,53565,9.63,71328.3,-4.43,-4.93,-4.99,0,*59
1509253593.0,53566,9.69,71334.3,-4.43,-4.93,-4.99,0,*5A
1509253594.24,53567,9.69,71358.3,-4.43,-4.93,-4.99,0,*5B
1509253595.47,53568,9.69,71344.3,-4.43,-4.99,-4.93,0,*54
1509253596.68,53569,9.69,71338.3,-4.43,-4.99,-4.99,0,*5F
1509253597.92,53570,9.69,71336.8,-4.43,-4.99,-4.93,0,*5D
1509253599.15,53571,9.69,71332.5,-4.41,-4.93,-4.93,0,*54
1509253600.39,53572,9.69,71326.3,-4.41,-4.93,-4.93,0,*57
1509253601.62,53573,9.69,71318.8,-4.43,-4.93,-4.99,0,*5E
1509253602.83,53574,9.69,71304.8,-4.43,-4.99,-4.99,0,*53
1509253604.04,53575,9.69,71320.8,-4.43,-4.99,-4.99,0,*52
1509253605.27,53576,9.63,71332.5,-4.43,-4.99,-4.93,0,*5B
1509253606.54,53577,9.69,71304.0,-4.43,-5.03,-4.93,0,*58
1509253607.78,53578,9.69,71294.5,-4.43,-5.07,-4.99,0,*59
1509253608.99,53579,9.69,71292.3,-4.43,-4.99,-4.99,0,*5E
1509253610.23,53580,9.69,71276.0,-4.41,-4.93,-4.93,0,*5A
1509253611.48,53581,9.69,71278.3,-4.43,-4.93,-4.93,0,*59
1509253612.69,53582,9.69,71288.3,-4.43,-4.99,-4.99,0,*5A
1509253613.94,53583,9.69,71280.3,-4.45,-5.03,-5.03,0,*5D
1509253615.18,53584,9.69,71286.3,-4.43,-4.99,-4.93,0,*56
1509253616.41,53585,9.69,71292.0,-4.41,-4.93,-4.93,0,*5F
1509253617.65,53586,9.69,71286.8,-4.41,-4.93,-4.89,0,*57
1509253618.86,53587,9.69,71298.0,-4.43,-4.99,-4.99,0,*5F
1509253620.08,53588,9.69,71292.8,-4.45,-5.03,-4.99,0,*54
1509253621.29,53589,9.69,71280.5,-4.43,-4.99,-4.99,0,*51
1509253622.5,53590,9.69,71296.5,-4.43,-4.99,-4.99,0,*59
1509253623.73,53591,9.69,71274.5,-4.43,-4.93,-4.99,0,*52
1509253624.97,53592,9.69,71264.3,-4.41,-4.93,-4.89,0,*52
1509253626.21,53593,9.69,71248.5,-4.41,-4.93,-4.89,0,*53
1509253627.45,53594,9.69,71250.8,-4.41,-4.93,-4.89,0,*54
1509253628.69,53595,9.63,71242.3,-4.41,-4.89,-4.89,0,*5E
1509253629.95,53596,9.69,71252.5,-4.43,-4.93,-4.93,0,*5F
1509253631.19,53597,9.69,71262.5,-4.43,-4.99,-4.93,0,*54
1509253632.39,53598,9.69,71272.0,-4.43,-4.99,-4.99,0,*51
1509253633.63,53599,9.63,71272.0,-4.41,-4.93,-4.89,0,*59
1509253634.87,53600,9.69,71268.5,-4.41,-4.89,-4.93,0,*5A
1509253636.11,53601,9.69,71280.0,-4.41,-4.93,-4.89,0,*5B
1509253637.35,53602,9.69,71264.8,-4.43,-4.99,-4.93,0,*5B
1509253638.59,53603,9.69,71270.8,-4.41,-5.03,-4.93,0,*5A
1509253639.83,53604,9.69,71280.0,-4.41,-4.93,-4.89,0,*5E
1509253641.04,53605,9.63,71294.8,-4.43,-4.99,-4.99,0,*56
1509253642.28,53606,9.63,71300.3,-4.41,-4.93,-5.03,0,*5F
1509253643.53,53607,9.69,71296.3,-4.41,-5.03,-4.93,0,*5E
1509253644.77,53608,9.63,71292.8,-4.41,-4.93,-4.89,0,*52
1509253646.0,53609,9.69,71266.3,-4.41,-4.93,-4.93,0,*58
1509253647.24,53610,9.69,71282.3,-4.41,-4.93,-4.93,0,*50
1509253648.47,53611,9.69,71276.8,-4.41,-4.93,-4.93,0,*51
1509253649.72,53612,9.63,71290.3,-4.41,-5.03,-4.93,0,*5A
1509253650.95,53613,9.69,71266.5,-4.41,-4.93,-4.93,0,*53
1509253652.19,53614,9.69,71296.8,-4.41,-4.93,-5.03,0,*5C
1509253653.44,53615,9.63,71296.5,-4.41,-5.03,-4.93,0,*5D
1509253654.65,53616,9.69,71294.3,-4.43,-4.99,-4.99,0,*54
1509253655.88,53617,9.69,71292.5,-4.41,-4.93,-4.93,0,*57
1509253657.09,53618,9.69,71268.8,-4.43,-4.99,-4.99,0,*5A
1509253658.36,53619,9.63,71284.3,-4.43,-5.07,-4.93,0,*57
1509253659.57,53620,9.69,71300.0,-4.43,-4.99,-4.99,0,*51
1509253660.82,53621,9.63,71304.5,-4.45,-5.11,-5.03,0,*55
1509253662.03,53622,9.63,71312.3,-4.43,-4.99,-4.99,0,*53
1509253663.24,53623,9.69,71324.8,-4.43,-4.99,-4.99,0,*52
1509253664.44,53624,9.69,71332.0,-4.43,-4.99,-4.99,0,*55
1509253665.65,53625,9.63,71334.8,-4.43,-4.99,-4.99,0,*54
1509253666.9,53626,9.63,71342.8,-4.41,-5.03,-4.93,0,*5D
1509253668.14,53627,9.69,71332.3,-4.41,-5.03,-4.93,0,*5C
1509253669.39,53628,9.69,71328.5,-4.41,-5.03,-4.93,0,*53
1509253670.62,53629,9.63,71324.8,-4.41,-4.93,-4.93,0,*5A
1509253671.86,53630,9.69,71338.0,-4.41,-4.93,-4.93,0,*52
1509253673.07,53631,9.69,71330.0,-4.43,-4.99,-4.99,0,*51
1509253674.31,53632,9.69,71322.5,-4.41,-4.93,-4.89,0,*5B
1509253675.55,53633,9.69,71322.8,-4.41,-4.89,-4.93,0,*5A
1509253676.81,53634,9.63,71312.8,-4.39,-5.03,-4.93,0,*51
1509253678.02,53635,9.69,71298.5,-4.43,-4.99,-4.99,0,*55
1509253679.23,53636,9.69,71300.5,-4.43,-4.99,-4.99,0,*56
1509253680.47,53637,9.69,71266.8,-4.43,-4.99,-5.07,0,*51
1509253681.72,53638,9.69,71280.0,-4.43,-5.07,-4.99,0,*5E
1509253682.96,53639,9.69,71280.5,-4.43,-5.07,-4.99,0,*5F
1509253684.2,53640,9.69,71302.8,-4.41,-4.93,-4.89,0,*5E
1509253685.43,53641,9.69,71298.3,-4.41,-4.93,-4.93,0,*54
1509253686.67,53642,9.63,71288.5,-4.41,-4.93,-4.93,0,*57
1509253687.91,53643,9.69,71294.0,-4.43,-4.99,-5.07,0,*52
1509253689.12,53644,9.69,71294.3,-4.43,-4.99,-4.99,0,*53
1509253690.36,53645,9.63,71290.5,-4.43,-5.07,-4.99,0,*54
1509253691.57,53646,9.69,71294.5,-4.43,-4.99,-4.99,0,*51
1509253692.78,53647,9.69,71310.0,-4.43,-4.99,-4.99,0,*50
1509253694.01,53648,9.69,71310.3,-4.43,-4.93,-4.99,0,*55
1509253695.22,53649,9.69,71298.8,-4.43,-4.99,-4.99,0,*5E
1509253696.46,53650,9.63,71286.8,-4.43,-5.07,-4.99,0,*50
1509253697.67,53651,9.69,71300.3,-4.43,-4.99,-4.99,0,*57
1509253698.91,53652,9.63,71318.0,-4.43,-4.99,-5.07,0,*52
1509253700.18,53653,9.69,71320.0,-4.43,-5.07,-4.93,0,*59
1509253701.42,53654,9.63,71318.8,-4.43,-5.07,-4.99,0,*54
1509253702.63,53655,9.69,71320.8,-4.43,-4.99,-4.99,0,*53
1509253703.84,53656,9.69,71312.3,-4.43,-4.99,-4.99,0,*50
1509253705.05,53657,9.69,71310.8,-4.43,-4.99,-4.99,0,*51
1509253706.3,53658,9.69,71304.8,-4.41,-5.03,-4.93,0,*54
1509253707.53,53659,9.69,71308.5,-4.41,-4.93,-4.93,0,*5D
1509253708.77,53660,9.69,71312.0,-4.41,-4.89,-4.93,0,*5C
1509253710.01,53661,9.69,71314.5,-4.41,-4.93,-4.93,0,*56
1509253711.24,53662,9.69,71308.3,-4.41,-4.93,-4.93,0,*55
1509253712.51,53663,9.69,71302.8,-4.43,-5.07,-4.93,0,*5A
1509253713.75,53664,9.69,71306.5,-4.43,-5.07,-4.99,0,*57
1509253715.0,53665,9.69,71310.3,-4.43,-5.07,-4.99,0,*56
1509253716.23,53666,9.69,71308.8,-4.41,-4.93,-4.93,0,*51
1509253717.47,53667,9.69,71318.3,-4.41,-4.93,-4.93,0,*50
1509253718.7,53668,9.69,71322.3,-4.43,-5.11,-4.99,0,*5C